COSMOS 1275 DEB, 13470

Orbit data source: Space-Track

COSMOS 1275 DEB, 13470 is space debris in LEO originally from a launch on Thu, 04 Jun 1981 UTC launched from the Plesetsk Missile And Space Complex (PKMTR). Debris objects in space refer to the collection of defunct objects orbiting the Earth. Examples of debris include non-operational satellites, rocket bodies, and fragments generated from explosions, collisions, or faulty payload assembly.

Loading next visibility...
Identifier
13470, 1981-053FS
Orbit
LEO
Country
Flag of CISCIS
Related business
Manufacturer
Unknown
Mission
Spacecraft
Bus & Motor
Unknown
Mass
Unknown
Launch date (UTC)
1981-06-04 (45 years ago)
Launch vehicle
Unknown
Launch site
Plesetsk Missile And Space Complex (PKMTR)
Object type
Payload
Rocket body
Debris
Shape & HBR
Unknown shape, 0.1 m
Radar Cross Section
Medium (>0.1 m² and <1 m²)

Expand to show TLE details & history
Last TLE update: 9 hours ago

TLE from 9 hours ago
0 COSMOS 1275 DEB
1 13470U 81053FS  26255.04228354  .00000220  00000-0  34560-3 0  9995
2 13470  82.8170 120.8857 0238941  27.0662  95.1178 13.35329269154323
Epoch: 2026-09-12T01:00Z
TLE epoch observation values (Epoch: 2026-09-12T01:00:53.297Z)
Latitude
54.55264°
Longitude
-75.53766°
Altitude
1,155.944 km
Speed
7.27 km/s
True Right ascension
19h 22m 57s
True Declination
54° 23' 55"
Sunlit
Object was in daylight at epoch
Visualization orbit readout
Latitude
Unknown
Longitude
Unknown
Altitude
Unknown
Speed
Unknown
Apparent Right ascension
Unknown
Apparent Declination
Unknown
Sunlit
N/A
Visualization observer readout
Local Sidereal Time
02:53:53
Azimuth
Unknown
Elevation
Unknown
Doppler factor
Unknown
Orbital elements
Apogee altitude
1,303.19 km
Perigee altitude
944.68 km
Semi-major axis
7,502.072 km
Eccentricity
0.02389
Inclination
82.817°
RAAN
120.8857°
Arg. of periapsis
27.0662°
True anomaly
97.83668°
Mean anomaly
95.1178°
Eccentric anomaly
96.47809°
Mean motion
3.34019 °/min
Orbital period
107.78 mins
BSTAR
0.0003456
Loading maneuver chart data...
Computing Atmospheric mass density...
Loading historical data...
Loading historical data...
Loading historical data...
Loading historical data...
Loading historical data...
Loading historical data...
Loading historical data...

Documentation

Showing up to 5 results
|